Location: ??
(35.3149°N, 139.6204°E)
Time: 12:30:52
(UTC+00:00)

Envisat - Pass Details

Date: 03 August 2024
Orbit: 762 x 764 km, 98.3° (Epoch: 10 September)

Event Time Altitude Azimuth Distance (km) Brightness Sun altitude
Rises 17:56:42 0° 11° (N) 3,232 7.1 -21.0°
Reaches altitude 10° 17:59:01 10° 10° (N) 2,302 6.2 -20.6°
Maximum altitude 18:04:05 80° 284° (WNW) 778 2.9 -19.8°
Enters shadow 18:06:19 34° 202° (SSW) 1,229 3.6 -19.5°
